Regional Weather Roundup
Issued by NWS San Diego, CA

Home | Current Version | Previous Version | Text Only | Print | Product List | Glossary On
Versions: 1 2 3 4 5 6 7 8 9 10 11 12 13 14 15 16 17 18 19 20 21 22 23 24 25 26 27 28 29 30 31 32 33 34 35 36 37 38 39 40 41 42 43 44 45 46 47 48 49 50
000
ASUS46 KSGX 200510
RWRSGX

SAN DIEGO HOURLY WEATHER ROUNDUP
NATIONAL WEATHER SERVICE SAN DIEGO CA
1000 PM PDT TUE AUG 19 2014

NOTE: "FAIR" INDICATES FEW OR NO CLOUDS BELOW 12,000 FEET WITH NO
SIGNIFICANT WEATHER AND/OR OBSTRUCTIONS TO VISIBILITY.

CAZ042-043-060-061-PZZ750-775-200600-

GREATER SAN DIEGO AREA

CITY           SKY/WX    TMP DP  RH WIND       PRES   REMARKS
LINDBERGH FLD  PTCLDY    69  59  70 W5        29.90S
POINT LOMA       N/A     66  59  79 W5          N/A
NATIONAL CITY    N/A     69  63  80 CALM      29.89S
CHULA VISTA      N/A     68  63  83 CALM      29.82S
IMPERIAL BEACH PTCLDY    68  61  78 SW3       29.89S
BROWN FIELD    CLEAR     65  59  81 W3        29.89S
MIRAMAR MCAS   PTCLDY    66  58  75 W5        29.89S
MONTGOMERY FLD CLEAR     68  59  73 W6        29.90R

$$

NORTH SAN DIEGO COUNTY

CITY           SKY/WX    TMP DP  RH WIND       PRES   REMARKS
CAMP PENDLETON CLOUDY    68  58  70 CALM      29.89R
OCEANSIDE AP   CLOUDY    70  59  68 S3        29.88R
CARLSBAD       CLOUDY    68  59  73 S3        29.88S
DEL MAR          N/A     67  62  85 CALM      29.91S
LA JOLLA SCRIP   N/A     67  62  85 SW1       29.87R
FALLBROOK        N/A     66  64  94 CALM      29.89R
ESCONDIDO        N/A     66  61  83 CALM      29.91R
SAN MARCOS       N/A     66  60  83 CALM      29.87R
POWAY            N/A     67  60  79 CALM      29.89R
R. PENASQUITOS   N/A     66  60  82 CALM      29.89R

$$

EAST SAN DIEGO COUNTY

CITY           SKY/WX    TMP DP  RH WIND       PRES   REMARKS
RAMONA         CLEAR     62  57  83 NW6       29.91R
SANTEE LAKES     N/A     67  61  81 CALM      29.90R
GILLESPIE FLD  FAIR      66  57  72 W5        29.91S
LA MESA          N/A     67  62  83 CALM      29.83
JAMUL            N/A     64  59  84 CALM      29.87R
DESCANSO N       N/A     60  44  54 CALM      29.73R
CAMPO            N/A     62  54  74 N3        29.92R

$$

ORANGE COUNTY AND THE LOS ANGELES BASIN

CITY           SKY/WX    TMP DP  RH WIND       PRES   REMARKS
JOHN WAYNE AP  MOCLDY    72  60  66 S7        29.88R
LAGUNA BEACH     N/A     69  62  78 S2        29.85R
LAKE FOREST FR   N/A     65  58  77 CALM      29.79R
SANTA ANA        N/A     70  64  80 CALM      29.84R
HUNTINGTON BCH   N/A     69  63  82 CALM      29.91R
LOS ALAMITOS   CLOUDY    69  62  77 S3        29.89R
FULLERTON      MOCLDY    70  60  70 S7        29.88R
LONG BEACH     CLOUDY    70  62  76 VRB3      29.88R
L.A. AP        CLOUDY    69  60  73 W8        29.89R
L.A. DOWNTOWN  CLOUDY    70  61  73 CALM      29.88R

$$

THE INLAND EMPIRE

CITY           SKY/WX    TMP DP  RH WIND       PRES   REMARKS
CORONA         CLEAR     67  60  78 W9          N/A
CHINO          CLEAR     66  60  81 MISG      29.90R
ONTARIO        CLEAR     67  60  78 W7        29.89R
RIVERSIDE AP   CLEAR     68  60  75 W6        29.89R
RIV CYN CREST    N/A     68  66  92 W3        29.87R
MORENO VALLEY    N/A     69  64  85 SE2         N/A
MARCH ARB      CLEAR     69  56  62 SE2       29.91R
HORSETHIEF CYN   N/A     69  57  65 CALM      29.89R
PERRIS           N/A     68  58  72 S5        29.87S
MENIFEE          N/A     68  60  76 SE5       29.95R
HEMET EAST       N/A     66  56  71 CALM      29.87R
FRENCH VALLEY  CLOUDY    64  59  82 SW3       29.92R
TEMECULA         N/A     65  61  85 CALM      29.87R

$$

SAN BERNARDINO AND RIVERSIDE COUNTY MOUNTAINS

CITY           SKY/WX    TMP DP  RH WIND       PRES   REMARKS
BIG BEAR AP    PTCLDY    57  34  41 W3        30.12F
BIG BEAR SHEA    N/A     55  40  58 CALM      29.79S
PINE COVE        N/A     57  31  37 CALM      29.71R

$$

SOUTHERN DESERT INCLUDING THE COACHELLA VALLEY

CITY           SKY/WX    TMP DP  RH WIND       PRES   REMARKS
PALM SPRINGS   CLEAR     86  49  27 NW15      29.75R
THOUSAND PALMS   N/A     83  50  31 NW14      29.71R
PALM DESERT      N/A     85  52  31 CALM      29.21S
THERMAL        PTCLDY    88  49  25 N14       29.69R
BLYTHE         PTCLDY    93  50  23 SW16      29.70R
IMPERIAL AP    CLEAR     87  39  18 W17       29.69R
EL CENTRO NAS  PTCLDY    88  37  16 W22       29.70R
YUMA AZ        PTCLDY    90  66  45 S7        29.74R
MEXICALI       CLEAR     90  41  18 N10       29.71

$$

UPPER DESERT

CITY           SKY/WX    TMP DP  RH WIND       PRES   REMARKS
VICTORVILLE AP CLEAR     72  37  28 SW5       29.91R
HESPERIA         N/A     70  47  44 W8        29.85S
APPLE VALLEY     N/A     72  42  34 S7G18     29.98R
GRAY BUTTE AP  FAIR      69  43  39 NW12      29.91R
PALMDALE       CLEAR     69  47  45 NW12      29.91R
LANCASTER      CLEAR     67  52  58 SW14      29.89R
EDWARDS AFB    PTCLDY    70  50  49 SW15      29.86R
DAGGETT        NOT AVBL
29 PALMS N     PTCLDY    84  46  26 SW15      29.86R
NEEDLES        CLEAR     83  61  47 CALM      29.74R

$$

REGIONAL REPORTS

CITY           SKY/WX    TMP DP  RH WIND       PRES   REMARKS
SANTA BARBARA  CLEAR     65  59  81 CALM      29.87R
SANDBERG         N/A     59  53  80 SW7       30.01R
MT. WILSON       N/A     55  28  35 MISG        N/A
LAS VEGAS NV   MOCLDY    82  55  39 SE5       29.77R
PHOENIX AZ     MOCLDY    76  65  68 W12       29.86R
TIJUANA        CLEAR     66  57  72 CALM      29.91S
ENSENADA NW      N/A     68  32  26 N1        29.88R

$$

OFFSHORE ISLANDS

CITY           SKY/WX    TMP DP  RH WIND       PRES   REMARKS
CATALINA ARPT  CLOUDY    61  58  90 SW3       29.92R
SAN NICOLAS IS CLOUDY   N/A N/A N/A W9        29.89S

$$

MARINE AND OFFSHORE BUOY REPORTS

STATION/POSITION SKY/WX   TEMP    WIND        PRES    SWELL
                          AIR SEA DIR/SP/G            HT/PER/DIR
                          (F)     (DEG/KT/KT) (MB)    (FT/S/D)
TANNER BANKS               65 68  310/ 14/ 17 1012.2R   5/310/ 8
S CLEMENTE BASIN           67 70  300/  4/  8 1011.9R   3/230/15
SAN NICOLAS IS.               65                N/A     3/190/14
SO. S. ROSA ISLA           63 65  320/ 16/ 17 1011.6R   3/ 9
W. S. BARBARA CH           62 60  330/ 10/ 12 1011.3R   3/310/ 8
M. S. BARBARA CH           63 65  260/ 12/ 12 1011.2
S. MONICA BASIN            67 71   50/  4/  8 1011.5R   2/200/15
S PEDRO CHANNEL               68                N/A     2/220/11
DANA POINT                    70                N/A     2/200/15
CMP PENDLETON NS              73                N/A     2/220/15
OCEANSIDE OFFSHR              73                N/A     2/190/15
TORREY PINES OTR              73                N/A     2/210/15
LA JOLLA 1                 68 72  210/  4/  6 1012.1F
MISSION BAY BUOY              69                N/A     2/210/15
SAN DIEGO BAY                 75              1012.6S
POINT LOMA SOUTH              73                N/A     2/210/15

$$




USA.gov is the U.S. government's official web portal to all federal, state and local government web resources and services.